Baudette, MN

2:05 AM CST on January 18, 2017 (GMT -0600)
Baudette International

Weather History for KBDE - August, 2013

Change the Weather History Date:

Wednesday, August 21, 2013

  Actual Average Record
Temperature  
Mean Temperature 70 °F -  
Max Temperature 79 °F 76 °F 91 °F (1976)
Min Temperature 60 °F 52 °F 35 °F (2004)
Cooling Degree Days 4    
Growing Degree Days 20 (Base 50)    
Moisture  
Dew Point 55 °F    
Average Humidity 62    
Maximum Humidity 93    
Minimum Humidity 30    
Precipitation  
Precipitation 0.00 in - - ()
Sea Level Pressure  
Sea Level Pressure 29.93 in    
Wind  
Wind Speed 9 mph (NW)    
Max Wind Speed 15 mph    
Max Gust Speed 23 mph    
Visibility 10 miles    
Events      
Averages and records for this station are not official NWS values.
T = Trace of Precipitation, MM = Missing Value Source: NWS Daily Summary

Daily Weather History Graph

Daily Weather History Graph

Search for Another Location

Airport or City:

Trip Planner

Search our weather history database for the weather conditions in past years. The results will help you decide how hot, cold, wet, or windy it might be!

Date:

Astronomy

Aug. 21, 2013 Rise Set
Actual Time 6:20 AM CDT 8:21 PM CDT
Civil Twilight 5:46 AM CDT 8:55 PM CDT
Nautical Twilight 5:04 AM CDT 9:37 PM CDT
Astronomical Twilight 4:16 AM CDT 10:24 PM CDT
Moon 8:19 PM CDT (8/21) 7:09 AM CDT (8/21)
Length of Visible Light 15h 09m
Length of Day
14h 01m
Waxing Gibbous, 99% of the Moon is Illuminated
Aug 21
Waxing Gibbous
Aug 28
Last Quarter
Sep 5
New
Sep 12
First Quarter
Sep 19
Full

Hourly Weather History & Observations

Time (CDT) Temp. Dew Point Humidity Pressure Visibility Wind Dir Wind Speed Gust Speed Precip Events Conditions
12:53 AM 78.1 °F 70.0 °F 76% 29.70 in 10.0 mi SW 11.5 mph - N/A   Clear
1:37 AM 69.8 °F 64.4 °F 83% 29.74 in 10.0 mi NW 11.5 mph - N/A   Partly Cloudy
1:53 AM 69.1 °F 64.9 °F 87% 29.73 in 10.0 mi WNW 10.4 mph 16.1 mph N/A   Clear
2:53 AM 66.9 °F 62.1 °F 84% 29.76 in 10.0 mi NNW 15.0 mph 23.0 mph N/A   Clear
3:53 AM 66.0 °F 60.1 °F 81% 29.80 in 10.0 mi NNW 9.2 mph - N/A   Clear
4:53 AM 62.1 °F 60.1 °F 93% 29.82 in 10.0 mi NNW 6.9 mph - N/A   Clear
5:53 AM 63.0 °F 59.0 °F 87% 29.85 in 10.0 mi NNW 6.9 mph - N/A   Clear
6:53 AM 62.1 °F 59.0 °F 90% 29.87 in 10.0 mi NW 5.8 mph - N/A   Clear
7:53 AM 63.0 °F 60.1 °F 90% 29.91 in 10.0 mi WSW 3.5 mph - N/A   Clear
8:53 AM 66.9 °F 60.1 °F 79% 29.94 in 10.0 mi NW 9.2 mph - N/A   Clear
9:53 AM 70.0 °F 59.0 °F 68% 29.95 in 10.0 mi NW 10.4 mph - N/A   Clear
10:53 AM 72.0 °F 54.0 °F 53% 29.96 in 10.0 mi NW 10.4 mph - N/A   Clear
11:53 AM 75.9 °F 48.9 °F 38% 29.98 in 10.0 mi NW 12.7 mph - N/A   Clear
12:53 PM 77.0 °F 50.0 °F 39% 29.99 in 10.0 mi NW 11.5 mph 20.7 mph N/A   Clear
1:53 PM 78.1 °F 50.0 °F 37% 30.00 in 10.0 mi NW 11.5 mph - N/A   Clear
2:53 PM 78.1 °F 48.0 °F 35% 30.00 in 10.0 mi North 10.4 mph 19.6 mph N/A   Clear
3:53 PM 79.0 °F 45.0 °F 30% 29.99 in 10.0 mi NW 13.8 mph 20.7 mph N/A   Clear
4:53 PM 78.1 °F 48.0 °F 35% 29.99 in 10.0 mi NNW 8.1 mph - N/A   Clear
5:53 PM 75.9 °F 50.0 °F 40% 30.00 in 10.0 mi NNW 9.2 mph - N/A   Clear
6:53 PM 73.0 °F 50.0 °F 44% 30.01 in 10.0 mi NW 6.9 mph - N/A   Clear
7:53 PM 71.1 °F 48.0 °F 44% 30.02 in 10.0 mi WNW 3.5 mph - N/A   Clear
8:53 PM 64.9 °F 46.9 °F 52% 30.05 in 10.0 mi Calm Calm - N/A   Clear
9:53 PM 63.0 °F 48.0 °F 58% 30.07 in 10.0 mi West 4.6 mph - N/A   Clear
10:53 PM 60.1 °F 50.0 °F 69% 30.09 in 10.0 mi NW 6.9 mph - N/A   Clear
11:53 PM 60.1 °F 48.9 °F 67% 30.09 in 10.0 mi West 3.5 mph - N/A   Clear